DW4776 Weather Reports


Display with metric or nautical units.
time (UTC)temp
F
wind
direction
speed
MPH
gust
MPH
rain 1hr
in
rain 24hr
in
rain mn
in
humidity
%
barometer
mb
20260508063038 49 0 0.0 4.0 0.00 0.00 0.00 45 1012.3
20260508061541 51 0 0.0 5.0 0.00 0.00 0.00 41 1012.2
20260508060053 52 68 2.0 4.0 0.00 0.00 0.00 41 1012.1
20260508054609 53 0 0.0 4.0 0.00 0.00 0.00 43 1012.2
20260508053048 55 335 6.0 9.0 0.00 0.00 0.00 43 1012.3
20260508051541 53 329 8.0 9.0 0.00 0.00 0.00 48 1012.2
20260508050037 53 275 1.0 4.0 0.00 0.00 0.00 49 1012.3
20260508044537 54 229 3.0 7.0 0.00 0.00 0.00 49 1012.5
20260508043041 55 297 2.0 5.0 0.00 0.00 0.00 46 1012.4
20260508041542 56 283 6.0 9.0 0.00 0.00 0.00 45 1012.4
20260508040039 58 264 3.0 5.0 0.00 0.00 0.00 43 1012.4
20260508034546 60 228 4.0 8.0 0.00 0.00 0.00 42 1012.2
20260508033040 60 254 6.0 10.0 0.00 0.00 0.00 41 1012.3
20260508031537 62 279 3.0 10.0 0.00 0.00 0.00 39 1012.3
20260508030043 62 258 9.0 14.0 0.00 0.00 0.00 40 1012.1
20260508024543 61 247 6.0 11.0 0.00 0.00 0.00 41 1011.9
20260508023037 62 254 2.0 10.0 0.00 0.00 0.00 39 1011.7
20260508021538 62 246 5.0 9.0 0.00 0.00 0.00 40 1011.5
20260508020035 64 208 6.0 10.0 0.00 0.00 0.00 40 1011.5
20260508014539 64 202 10.0 20.0 0.00 0.00 0.00 41 1011.4
20260508013041 64 216 6.0 10.0 0.00 0.00 0.00 40 1011.4
20260508011538 65 247 8.0 12.0 0.00 0.00 0.00 41 1011.4
20260508010047 65 222 11.0 20.0 0.00 0.00 0.00 39 1011.1
20260508004535 66 267 7.0 13.0 0.00 0.00 0.00 26 1011.3
20260508003039 66 313 9.0 16.0 0.00 0.00 0.00 26 1011.0
20260508001536 67 331 17.0 22.0 0.00 0.00 0.00 25 1011.0
20260508000040 67 320 11.0 19.0 0.00 0.00 0.00 26 1010.8
20260507234542 67 272 12.0 20.0 0.00 0.00 0.00 27 1010.8
20260507233038 67 323 15.0 20.0 0.00 0.00 0.00 27 1010.8
20260507231544 67 295 14.0 27.0 0.00 0.00 0.00 27 1010.8
20260507230041 67 317 11.0 21.0 0.00 0.00 0.00 27 1010.8
20260507224537 67 333 16.0 24.0 0.00 0.00 0.00 28 1010.9
20260507223040 66 315 15.0 24.0 0.00 0.00 0.00 29 1011.1
20260507221536 66 305 13.0 22.0 0.00 0.00 0.00 28 1011.1
20260507220037 66 348 14.0 26.0 0.00 0.00 0.00 29 1011.0
20260507214540 67 326 14.0 25.0 0.00 0.00 0.00 28 1011.2
20260507213037 66 293 16.0 23.0 0.00 0.00 0.00 29 1011.4
20260507211541 66 304 15.0 24.0 0.00 0.00 0.00 29 1011.6
20260507210039 66 291 11.0 24.0 0.00 0.00 0.00 29 1011.6
20260507204538 66 275 15.0 19.0 0.00 0.00 0.00 29 1011.6
20260507203038 65 293 16.0 23.0 0.00 0.00 0.00 29 1011.8
20260507201537 65 313 18.0 27.0 0.00 0.00 0.00 28 1011.8
20260507200037 65 313 19.0 26.0 0.00 0.00 0.00 28 1011.7
20260507194534 65 317 16.0 23.0 0.00 0.00 0.00 30 1011.7
20260507193039 65 293 14.0 24.0 0.00 0.00 0.00 31 1011.6
20260507191538 65 283 11.0 27.0 0.00 0.00 0.00 30 1011.4
20260507190038 66 265 12.0 20.0 0.00 0.00 0.00 31 1011.4
20260507184538 65 292 14.0 24.0 0.00 0.00 0.00 32 1011.5
20260507183043 65 311 16.0 25.0 0.00 0.00 0.00 33 1011.5
20260507181541 65 317 13.0 20.0 0.00 0.00 0.00 33 1011.7
20260507180051 65 295 14.0 24.0 0.00 0.00 0.00 33 1011.8
20260507174538 64 290 13.0 22.0 0.00 0.00 0.00 35 1011.9
20260507173040 63 343 12.0 21.0 0.00 0.00 0.00 36 1011.9
20260507171542 63 317 12.0 23.0 0.00 0.00 0.00 37 1011.9
20260507170037 63 309 16.0 26.0 0.00 0.00 0.00 38 1012.1
20260507164544 62 350 19.0 26.0 0.00 0.00 0.00 38 1012.2
20260507163047 62 339 18.0 26.0 0.00 0.00 0.00 38 1012.1
20260507161542 62 310 15.0 21.0 0.00 0.00 0.00 39 1012.2
20260507160046 62 335 16.0 22.0 0.00 0.00 0.00 39 1012.2
20260507154537 60 277 11.0 18.0 0.00 0.00 0.00 41 1012.1
20260507153043 59 300 10.0 14.0 0.00 0.00 0.00 43 1012.1
20260507151543 58 268 5.0 11.0 0.00 0.00 0.00 44 1012.1
20260507150038 57 258 6.0 10.0 0.00 0.00 0.00 45 1012.1
20260507144537 55 302 4.0 7.0 0.00 0.00 0.00 47 1012.1
20260507143040 55 350 2.0 7.0 0.00 0.00 0.00 50 1012.0
20260507141542 55 324 8.0 13.0 0.00 0.00 0.00 50 1012.0
20260507140035 56 318 19.0 27.0 0.00 0.00 0.00 48 1012.2
20260507134541 55 339 8.0 13.0 0.00 0.00 0.00 46 1011.8
20260507133039 52 322 9.0 12.0 0.00 0.00 0.00 51 1011.6
20260507131553 47 275 3.0 4.0 0.00 0.00 0.00 61 1011.5
20260507130056 46 275 2.0 4.0 0.00 0.00 0.00 61 1011.4
20260507124555 45 275 3.0 5.0 0.00 0.00 0.00 62 1011.5
20260507123036 45 299 3.0 7.0 0.00 0.00 0.00 60 1011.1
20260507121537 46 236 3.0 7.0 0.00 0.00 0.00 58 1010.8
20260507120039 46 262 5.0 10.0 0.00 0.00 0.00 59 1010.8
20260507114549 45 295 4.0 9.0 0.00 0.00 0.00 60 1010.8
20260507113037 45 234 5.0 8.0 0.00 0.00 0.00 51 1010.8
20260507111537 46 318 1.0 8.0 0.00 0.00 0.00 52 1010.5
20260507110043 44 277 1.0 5.0 0.00 0.00 0.00 52 1010.4
20260507104549 44 40 2.0 5.0 0.00 0.00 0.00 49 1010.4
20260507103038 43 19 1.0 2.0 0.00 0.00 0.00 50 1010.4
20260507101538 43 0 0.0 1.0 0.00 0.00 0.00 50 1010.3
20260507100039 43 19 1.0 5.0 0.00 0.00 0.00 50 1010.1
20260507094537 44 50 4.0 8.0 0.00 0.00 0.00 50 1010.1
20260507093040 43 58 4.0 9.0 0.00 0.00 0.00 49 1009.9
20260507091543 44 87 3.0 9.0 0.00 0.00 0.00 51 1009.7
20260507090038 44 57 2.0 8.0 0.00 0.00 0.00 52 1010.0
20260507084539 44 50 6.0 11.0 0.00 0.00 0.00 56 1009.6
20260507083037 44 97 6.0 10.0 0.00 0.00 0.00 58 1009.3
20260507081537 45 40 8.0 10.0 0.00 0.00 0.00 56 1009.4
20260507080037 43 27 6.0 9.0 0.00 0.00 0.00 59 1009.3
20260507074538 43 40 3.0 10.0 0.00 0.00 0.00 56 1009.5
20260507073044 43 27 8.0 11.0 0.00 0.00 0.00 57 1009.4
20260507071538 44 75 2.0 4.0 0.00 0.00 0.00 56 1009.1
20260507070048 44 63 3.0 6.0 0.00 0.00 0.00 54 1009.1
20260507064539 46 50 3.0 9.0 0.00 0.00 0.00 51 1009.0